Location: Chena
(64.8152°N, 147.9227°W)
Time: 20:22:31
(UTC+00:00)

Vanguard 2 - Pass Details

Date: 02 March 2021
Orbit: 552 x 2938 km, 32.9° (Epoch: 12 April)

Event Time Altitude Azimuth Distance (km) Brightness Sun altitude
Exits shadow 13:54:38 - 198° (SSW) 6,004 11.7 -19.6°
Reaches altitude 10° 14:00:24 10° 181° (S) 5,512 11.6 -19.1°
Maximum altitude 14:07:19 14° 156° (SSE) 5,377 11.8 -18.4°
Drops below altitude 10° 14:14:30 10° 132° (SE) 5,766 12.3 -17.7°
Sets 14:22:16 0° 112° (ESE) 6,647 13.1 -16.9°
